QPF
0.00 0.00 0.00 0.00 0.00 0.00 0.00 0.00 0.00 0.00 0.00 0.00 0.00 0.00 0.00 0.00 0.00 0.00 0.00 0.00 0.00 0.00 0.00 0.00 0.01 0.01 0.01 0.00 0.01 0.02 0.01 0.02 0.00
0.00 0.00 0.00 0.00 0.00 0.00 0.00 0.00 0.00 0.00 0.00 0.00 0.00 0.00 0.00 0.00 0.00 0.00 0.00 0.00 0.00 0.00 0.00 0.00 0.00 0.00 0.00 0.01 0.03 0.02 0.01 0.01 0.00
0.00 0.00 0.00 0.00 0.00 0.00 0.00 0.00 0.00 0.00 0.00 0.00 0.00 0.00 0.00 0.00 0.00 0.00 0.00 0.00 0.00 0.00 0.00 0.00 0.00 0.00 0.00 0.00 0.01 0.01 0.01 0.00 0.00
0.00 0.00 0.00 0.00 0.00 0.00 0.00 0.00 0.00 0.00 0.00 0.00 0.00 0.00 0.00 0.00 0.00 0.00 0.00 0.00 0.00 0.00 0.00 0.00 0.00 0.00 0.00 0.00 0.00 0.00 0.00 0.00 0.00
0.00 0.00 0.00 0.00 0.00 0.00 0.00 0.00 0.00 0.00 0.00 0.00 0.00 0.00 0.00 0.00 0.00 0.00 0.00 0.00 0.00 0.00 0.00 0.00 0.00 0.00 0.00 0.00 0.00 0.00 0.00 0.00 0.00
0.00 0.00 0.00 0.00 0.00 0.00 0.00 0.00 0.00 0.00 0.00 0.00 0.00 0.00 0.00 0.00 0.00 0.00 0.00 0.00 0.00 0.00 0.00 0.00 0.00 0.00 0.00 0.00 0.00 0.00 0.00 0.00 0.00
0.00 0.00 0.00 0.00 0.00 0.00 0.00 0.00 0.00 0.00 0.00 0.00 0.00 0.00 0.00 0.00 0.00 0.00 0.00 0.00 0.00 0.00 0.00 0.00 0.00 0.00 0.00 0.00 0.00 0.00 0.00 0.00 0.00
0.00 0.00 0.00 0.00 0.00 0.00 0.00 0.00 0.00 0.00 0.00 0.00 0.00 0.00 0.00 0.00 0.00 0.00 0.00 0.00 0.00 0.00 0.00 0.00 0.00 0.00 0.00 0.00 0.00 0.00 0.00 0.00 0.00
0.00 0.00 0.00 0.00 0.00 0.00 0.00 0.00 0.00 0.00 0.00 0.00 0.00 0.00 0.00 0.00 0.00 0.00 0.00 0.00 0.00 0.00 0.00 0.00 0.00 0.00 0.00 0.00 0.00 0.00 0.00 0.00 0.00
0.00 0.00 0.00 0.00 0.00 0.00 0.00 0.00 0.00 0.00 0.00 0.00 0.00 0.00 0.00 0.00 0.00 0.00 0.00 0.00 0.00 0.00 0.00 0.00 0.00 0.00 0.00 0.00 0.00 0.00 0.00 0.00 0.00
0.00 0.00 0.00 0.00 0.00 0.00 0.00 0.00 0.00 0.00 0.00 0.00 0.00 0.00 0.00 0.00 0.00 0.00 0.00 0.00 0.00 0.00 0.00 0.00 0.00 0.00 0.00 0.00 0.00 0.00 0.00 0.00 0.00
0.00 0.00 0.00 0.00 0.00 0.00 0.00 0.00 0.00 0.00 0.00 0.00 0.00 0.00 0.00 0.00 0.00 0.00 0.00 0.00 0.00 0.00 0.00 0.00 0.00 0.00 0.00 0.00 0.00 0.00 0.00 0.00 0.00
0.00 0.00 0.00 0.00 0.00 0.00 0.00 0.00 0.00 0.00 0.00 0.00 0.00 0.00 0.00 0.00 0.00 0.00 0.00 0.00 0.00 0.00 0.00 0.00 0.00 0.00 0.00 0.00 0.00 0.00 0.00 0.00 0.00
0.00 0.00 0.00 0.00 0.00 0.00 0.00 0.00 0.00 0.00 0.00 0.00 0.00 0.00 0.00 0.00 0.00 0.00 0.00 0.00 0.00 0.00 0.00 0.00 0.00 0.00 0.00 0.00 0.00 0.01 0.01 0.01 0.00
0.00 0.00 0.00 0.00 0.00 0.00 0.00 0.00 0.00 0.00 0.00 0.00 0.00 0.00 0.00 0.00 0.00 0.00 0.00 0.00 0.00 0.00 0.00 0.00 0.00 0.00 0.00 0.00 0.00 0.00 0.02 0.07 0.04
0.00 0.00 0.00 0.00 0.00 0.00 0.00 0.01 0.01 0.00 0.00 0.00 0.00 0.00 0.00 0.00 0.00 0.00 0.00 0.00 0.00 0.00 0.00 0.00 0.00 0.00 0.00 0.00 0.00 0.00 0.01 0.02 0.07
0.00 0.00 0.00 0.00 0.00 0.00 0.00 0.01 0.00 0.00 0.00 0.00 0.01 0.00 0.00 0.00 0.00 0.00 0.00 0.00 0.00 0.00 0.00 0.00 0.00 0.00 0.00 0.00 0.00 0.00 0.00 0.01 0.03
0.00 0.00 0.00 0.00 0.01 0.01 0.00 0.00 0.00 0.00 0.00 0.00 0.01 0.01 0.00 0.00 0.00 0.00 0.00 0.00 0.00 0.00 0.00 0.00 0.00 0.00 0.00 0.00 0.00 0.00 0.00 0.00 0.00
0.00 0.00 0.00 0.00 0.00 0.00 0.00 0.00 0.00 0.01 0.00 0.01 0.00 0.01 0.00 0.00 0.00 0.00 0.00 0.00 0.00 0.00 0.00 0.00 0.00 0.00 0.00 0.00 0.00 0.00 0.00 0.00 0.00
0.00 0.00 0.00 0.00 0.00 0.00 0.00 0.00 0.00 0.01 0.00 0.00 0.00 0.00 0.00 0.00 0.01 0.00 0.00 0.00 0.00 0.00 0.00 0.00 0.00 0.00 0.00 0.00 0.00 0.00 0.00 0.00 0.00
MSLP
1018.82 1019.05 1019.19 1019.39 1019.50 1019.71 1019.87 1019.99 1019.97 1019.99 1020.02 1020.07 1019.95 1019.94 1019.71 1019.59 1019.08 1019.73 1019.73 1019.91 1020.10 1020.16 1020.17 1020.13 1020.05 1019.99 1019.81 1019.75 1019.67 1019.61 1019.68 1019.68 1019.64
1019.02 1019.28 1019.46 1019.64 1019.86 1019.99 1020.15 1020.24 1020.24 1020.22 1020.26 1020.30 1020.22 1020.13 1019.90 1019.17 1019.29 1019.61 1019.80 1020.30 1020.35 1020.37 1020.37 1020.42 1020.46 1020.37 1020.27 1020.19 1020.09 1020.05 1020.05 1019.96 1020.02
1019.27 1019.51 1019.70 1019.92 1020.17 1020.28 1020.41 1020.43 1020.51 1020.53 1020.56 1020.63 1020.57 1020.40 1020.15 1019.35 1019.48 1019.66 1020.13 1020.62 1020.56 1020.59 1020.61 1020.65 1020.63 1020.60 1020.58 1020.56 1020.52 1020.48 1020.47 1020.40 1020.39
1019.44 1019.67 1019.95 1020.16 1020.36 1020.52 1020.63 1020.66 1020.73 1020.78 1020.80 1020.83 1020.84 1020.76 1020.37 1019.77 1019.88 1019.66 1020.17 1020.80 1020.72 1020.78 1020.80 1020.86 1020.86 1020.90 1020.89 1020.87 1020.83 1020.81 1020.79 1020.72 1020.66
1019.57 1019.88 1020.07 1020.35 1020.52 1020.66 1020.78 1020.80 1020.87 1020.98 1020.98 1020.98 1021.06 1020.96 1020.65 1019.93 1019.96 1019.89 1020.64 1020.84 1020.82 1020.94 1020.95 1021.00 1021.03 1021.08 1021.12 1021.14 1021.12 1021.06 1021.06 1020.99 1020.93
1019.57 1020.05 1020.27 1020.49 1020.58 1020.73 1020.87 1020.91 1020.97 1021.07 1021.00 1021.01 1021.08 1020.93 1020.02 1019.63 1019.74 1019.80 1020.73 1020.88 1020.83 1020.97 1021.03 1021.09 1021.19 1021.20 1021.30 1021.33 1021.34 1021.29 1021.23 1021.23 1021.20
1019.05 1019.93 1020.37 1020.56 1020.66 1020.76 1020.86 1020.91 1020.94 1020.98 1020.13 1020.51 1020.77 1020.37 1019.71 1019.72 1019.70 1019.91 1020.62 1020.80 1020.77 1020.83 1021.03 1021.07 1021.18 1021.24 1021.36 1021.41 1021.42 1021.40 1021.39 1021.42 1021.42
1019.27 1019.45 1019.95 1020.00 1020.49 1020.12 1020.47 1020.64 1020.43 1019.83 1019.95 1019.89 1019.85 1019.88 1019.89 1019.72 1019.63 1019.99 1020.47 1020.72 1020.70 1020.62 1020.81 1020.98 1021.07 1021.17 1021.30 1021.38 1021.43 1021.42 1021.49 1021.54 1021.57
1018.62 1018.85 1019.06 1019.34 1019.34 1019.34 1019.48 1019.44 1019.51 1019.73 1019.88 1019.82 1019.75 1019.70 1019.79 1019.66 1019.55 1019.69 1020.19 1020.53 1020.63 1020.58 1020.55 1020.70 1020.87 1020.98 1021.11 1021.21 1021.30 1021.36 1021.52 1021.59 1021.63
1018.51 1018.67 1018.87 1019.02 1019.15 1019.26 1019.27 1019.36 1019.30 1019.40 1019.41 1019.45 1019.55 1019.54 1019.47 1019.45 1019.47 1019.57 1019.98 1020.18 1020.38 1020.42 1020.39 1020.39 1020.44 1020.63 1020.77 1020.92 1021.12 1021.27 1021.41 1021.52 1021.56
1018.52 1018.63 1018.84 1018.93 1019.10 1019.13 1019.18 1019.10 1019.17 1019.22 1019.22 1019.23 1019.21 1019.20 1019.21 1019.21 1019.27 1019.33 1019.44 1019.83 1020.03 1020.14 1020.15 1020.13 1020.07 1020.07 1020.24 1020.45 1020.63 1020.89 1021.15 1021.39 1021.54
1018.45 1018.50 1018.49 1018.65 1018.76 1018.91 1018.93 1019.03 1019.10 1019.15 1019.08 1019.12 1018.94 1018.86 1018.84 1018.86 1018.86 1018.95 1019.11 1019.19 1019.59 1019.64 1019.76 1019.78 1019.75 1019.74 1019.74 1019.91 1020.06 1020.34 1020.58 1020.80 1021.06
1018.18 1018.29 1018.37 1018.39 1018.51 1018.73 1018.79 1018.88 1018.93 1018.98 1018.91 1018.79 1018.55 1018.51 1018.70 1018.62 1018.54 1018.51 1018.53 1018.70 1018.79 1019.17 1019.23 1019.31 1019.41 1019.44 1019.47 1019.45 1019.53 1019.77 1020.06 1020.40 1020.60
1017.92 1017.97 1018.10 1018.17 1018.29 1018.41 1018.57 1018.63 1018.67 1018.67 1018.57 1018.53 1018.58 1018.63 1018.44 1018.24 1018.11 1018.04 1018.07 1018.08 1018.24 1018.40 1018.56 1018.91 1019.05 1019.23 1019.24 1019.18 1019.14 1019.23 1019.41 1019.66 1020.23
1017.68 1017.77 1017.86 1017.91 1018.08 1018.29 1018.35 1018.43 1018.48 1018.61 1018.67 1018.69 1018.57 1018.43 1018.27 1017.93 1017.97 1017.82 1017.62 1017.48 1017.48 1017.86 1018.26 1018.53 1018.76 1018.90 1018.99 1019.06 1019.02 1018.95 1018.91 1019.23 1019.59
1017.52 1017.63 1017.66 1017.75 1018.05 1018.14 1018.24 1018.32 1018.57 1018.67 1018.72 1018.91 1018.59 1018.28 1017.94 1017.67 1017.63 1017.47 1017.33 1017.29 1017.40 1017.86 1018.26 1018.37 1018.39 1018.34 1018.67 1018.70 1018.82 1018.88 1018.91 1018.83 1018.91
1017.53 1017.72 1018.00 1018.01 1018.35 1018.39 1018.48 1018.55 1018.70 1018.81 1018.84 1018.86 1018.77 1018.38 1017.84 1017.20 1017.00 1017.37 1017.43 1017.64 1017.78 1018.03 1018.20 1018.34 1018.44 1018.53 1018.53 1018.74 1019.05 1019.11 1019.11 1018.88 1018.65
1018.20 1018.39 1018.51 1018.57 1018.73 1018.78 1018.87 1018.93 1018.93 1018.95 1018.88 1018.92 1019.14 1018.64 1017.96 1017.51 1017.51 1017.67 1017.73 1017.85 1018.08 1018.30 1018.30 1018.44 1018.55 1018.71 1018.74 1018.87 1019.01 1019.52 1019.50 1019.33 1018.92
1018.56 1018.62 1018.53 1018.51 1018.56 1018.78 1018.91 1018.96 1018.91 1018.93 1018.90 1018.89 1018.76 1018.95 1018.89 1018.65 1018.17 1017.90 1018.01 1018.16 1018.38 1018.16 1018.17 1018.25 1018.33 1018.74 1019.15 1019.34 1019.89 1019.91 1019.72 1019.45 1019.13
1018.83 1018.89 1018.87 1018.73 1018.70 1018.80 1018.93 1018.97 1018.98 1018.92 1018.92 1018.80 1018.83 1018.85 1018.85 1019.13 1019.12 1018.66 1018.61 1018.43 1018.50 1018.33 1018.30 1018.86 1019.27 1019.75 1019.88 1019.93 1020.33 1020.33 1019.94 1019.60 1019.19
Thickness
5726 5724 5722 5720 5719 5716 5714 5712 5712 5711 5710 5709 5710 5709 5710 5710 5710 5704 5702 5699 5696 5694 5692 5690 5689 5687 5687 5685 5684 5683 5681 5678 5677
5724 5721 5719 5717 5715 5713 5711 5710 5709 5709 5707 5706 5707 5707 5707 5710 5707 5704 5701 5695 5693 5691 5689 5686 5684 5682 5681 5679 5678 5676 5675 5673 5671
5721 5718 5716 5714 5712 5710 5708 5707 5706 5705 5703 5702 5703 5703 5703 5706 5703 5701 5696 5691 5690 5688 5686 5684 5681 5679 5677 5675 5672 5670 5668 5667 5664
5718 5716 5713 5711 5709 5708 5705 5705 5704 5702 5701 5700 5699 5699 5700 5702 5699 5699 5694 5687 5686 5684 5682 5679 5677 5675 5672 5670 5668 5665 5663 5661 5660
5716 5714 5712 5709 5707 5705 5704 5703 5702 5699 5698 5698 5696 5696 5697 5699 5696 5695 5688 5684 5682 5680 5678 5675 5673 5671 5668 5665 5662 5661 5658 5656 5654
5714 5711 5709 5706 5705 5703 5701 5700 5699 5697 5697 5696 5694 5694 5697 5698 5696 5693 5686 5682 5680 5676 5674 5671 5668 5665 5662 5660 5658 5656 5653 5650 5648
5715 5710 5707 5705 5703 5701 5699 5698 5697 5696 5700 5697 5695 5695 5697 5695 5693 5690 5683 5679 5677 5674 5670 5667 5664 5661 5658 5655 5652 5650 5647 5644 5641
5712 5711 5707 5706 5703 5704 5701 5698 5698 5701 5698 5698 5696 5694 5692 5692 5691 5687 5682 5677 5674 5671 5667 5664 5661 5657 5653 5650 5647 5644 5640 5637 5635
5714 5712 5711 5709 5708 5707 5705 5704 5702 5699 5696 5695 5694 5693 5690 5689 5688 5685 5680 5674 5671 5669 5666 5661 5657 5653 5649 5646 5642 5639 5635 5632 5630
5711 5710 5709 5708 5706 5704 5704 5702 5701 5699 5697 5695 5692 5691 5689 5687 5684 5681 5677 5673 5669 5666 5662 5659 5655 5651 5647 5642 5637 5634 5631 5627 5625
5708 5707 5706 5705 5703 5702 5701 5701 5699 5697 5695 5693 5691 5689 5687 5684 5681 5678 5675 5671 5667 5663 5659 5656 5653 5649 5645 5640 5636 5631 5627 5622 5618
5705 5705 5705 5703 5702 5700 5698 5697 5695 5693 5692 5690 5689 5687 5685 5682 5679 5676 5671 5669 5664 5661 5656 5653 5650 5646 5643 5638 5634 5630 5625 5620 5616
5703 5702 5701 5701 5700 5697 5695 5694 5692 5690 5689 5688 5688 5686 5681 5679 5676 5673 5670 5665 5662 5659 5654 5650 5646 5642 5638 5635 5632 5628 5622 5617 5612
5700 5699 5698 5697 5696 5694 5692 5691 5690 5687 5686 5685 5683 5679 5678 5676 5674 5671 5667 5663 5660 5656 5651 5647 5642 5638 5634 5632 5628 5624 5621 5617 5609
5696 5695 5694 5694 5693 5690 5689 5687 5687 5683 5680 5678 5676 5675 5674 5672 5668 5666 5663 5661 5658 5652 5645 5640 5636 5633 5630 5626 5623 5620 5618 5612 5607
5692 5691 5690 5689 5687 5686 5685 5683 5678 5676 5675 5668 5668 5669 5670 5669 5665 5661 5659 5655 5651 5645 5638 5634 5631 5629 5625 5621 5618 5615 5611 5608 5604
5686 5684 5683 5681 5679 5678 5676 5674 5670 5668 5666 5660 5657 5651 5659 5662 5663 5657 5652 5646 5641 5635 5630 5626 5623 5620 5617 5614 5609 5606 5603 5601 5599
5675 5673 5672 5671 5669 5667 5665 5663 5661 5657 5658 5655 5646 5643 5643 5649 5650 5646 5641 5637 5631 5625 5621 5617 5614 5611 5608 5605 5601 5596 5593 5590 5588
5664 5663 5664 5663 5662 5659 5657 5655 5654 5651 5648 5647 5645 5640 5635 5629 5630 5635 5631 5626 5619 5618 5613 5609 5607 5603 5598 5594 5590 5586 5584 5580 5578
5654 5653 5653 5653 5652 5651 5648 5647 5645 5643 5640 5639 5636 5632 5629 5623 5618 5618 5617 5617 5611 5607 5604 5597 5593 5588 5585 5584 5578 5575 5573 5570 5569